一网星座-0530星 (ONEWEB-0530)

导读 | 豆包AI

ONEWEB-0530是英国OneWeb公司的低地球轨道宽带卫星,于2023年3月9日由SpaceX猎鹰9号火箭发射升空,属于OneWeb全球卫星互联网星座组网任务中的一颗,此次任务共成功发射40颗卫星,使在轨卫星总数达到582颗,距离完成600余颗卫星的初始星座建设仅差最后一次发射。该卫星旨在为全球用户提供无处不在的高速互联网接入服务,推动星地一体化通信网络建设。

Basic Information
目录编号:
55796
目录名称:
ONEWEB-0530
国际标识:
2023-029A
轨道中心:
EARTH
卫星名称:
一网星座-0530星
卫星全名:
一网星座-0530星 (ONEWEB-0530)
卫星状态:
在轨 (已飞行1150 天)
发射日期:
2023-03-09 UTC
国别 :
英国 (GB)
星等 :
--
Orbit Information
数据来源 国际轨道数据 AOE轨道数据
星历时间 2026-05-02T12:21:50+0800
7小时前
查看轨道信息
2026-05-02T12:00:00+0800
7小时前
查看轨道信息
半长轴 7559.88km 7559.861km
偏心率 0.0001941 0.000237
轨道倾角 87.914° 87.914°
近地点辐角 110.275° 98.873°
升交点赤经 283.653° 283.655°
平近点角 249.859° 189.191°
近地点 1180.275km 1179.932km
远地点 1183.211km 1183.516km
周期 109.026分钟 109.026分钟
每日圈数 13.207799 13.20785
Detailed Information
平衡模式:
三轴稳定
覆盖范围:
全球
运营商:
一网卫星公司
运营商所在国:
英国
制造商(研发单位):
一网卫星公司
制造商所在国:
英国
使用方式:
暂无
Satellite Introduction
OneWeb卫星网络由648颗重约125公斤的微型卫星组成,运行在1200公里的轨道上。 每颗卫星都能够提供至少每秒8千兆位的吞吐量,以使用其高吞吐量的Ku频段有效载荷为家庭和移动平台提供互联网接入。该卫星仍在工作。
2D Orbit Map
3D Orbit Map
Orbit Altitude Analysis Chart
Orbit Inclination Analysis Chart
Orbit Comprehensive Analysis Chart
View Comprehensive Chart